Jaipur / Sanganer, India

4:56 AM IST on February 20, 2017 (GMT +0530)
Jaipur

Weather History for VIJP - August, 2014

Change the Weather History Date:

Thursday, August 21, 2014

  Actual Average Record
Temperature  
Mean Temperature 89 °F -  
Max Temperature 96 °F - - ()
Min Temperature 82 °F - - ()
Cooling Degree Days 24    
Growing Degree Days 39 (Base 50)    
Moisture  
Dew Point 69 °F    
Average Humidity 54    
Maximum Humidity 78    
Minimum Humidity 28    
Precipitation  
Precipitation 0.00 in - - ()
Sea Level Pressure  
Sea Level Pressure 29.69 in    
Wind  
Wind Speed 6 mph ()    
Max Wind Speed 14 mph    
Max Gust Speed -    
Visibility 2.1 miles    
Events      
T = Trace of Precipitation, MM = Missing Value Source: Averaged Metar Reports

Daily Weather History Graph

Daily Weather History Graph

Search for Another Location

Airport or City:

Trip Planner

Search our weather history database for the weather conditions in past years. The results will help you decide how hot, cold, wet, or windy it might be!

Date:

Astronomy

Aug. 21, 2014 Rise Set
Actual Time 6:01 AM IST 6:58 PM IST
Civil Twilight 5:37 AM IST 7:22 PM IST
Nautical Twilight 5:08 AM IST 7:50 PM IST
Astronomical Twilight 4:39 AM IST 8:19 PM IST
Moon 2:17 AM IST (8/21) 3:59 PM IST (8/21)
Length of Visible Light 13h 45m
Length of Day
12h 57m
Waning Crescent, 16% of the Moon is Illuminated
Aug 21
Waning Crescent
Aug 25
New
Sep 2
First Quarter
Sep 9
Full
Sep 16
Last Quarter

Hourly Weather History & Observations

Time (IST) Temp. Heat Index Dew Point Humidity Pressure Visibility Wind Dir Wind Speed Gust Speed Precip Events Conditions
12:00 AM 84.2 °F 89.6 °F 71.6 °F 66% 29.71 in 1.9 mi SW 6.9 mph - N/A   Haze
1:00 AM 82.4 °F 87.2 °F 71.6 °F 70% 29.71 in 1.9 mi SW 6.9 mph - N/A   Haze
2:00 AM 82.4 °F 87.2 °F 71.6 °F 70% 29.68 in 1.9 mi SW 4.6 mph - N/A   Haze
2:30 AM 84 °F - 73 °F 61% 29.60 in 1 mi SW 4.6 mph - -   Haze
3:00 AM 80.6 °F 84.6 °F 71.6 °F 74% 29.68 in 1.9 mi SW 5.8 mph - N/A   Haze
4:00 AM 80.6 °F 84.6 °F 71.6 °F 74% 29.68 in 1.9 mi SW 5.8 mph - N/A   Haze
5:00 AM 80.6 °F 84.6 °F 71.6 °F 74% 29.68 in 1.9 mi SW 5.8 mph - N/A   Haze
5:30 AM 81 °F - 72 °F 68% 29.63 in 1 mi WNW 3.5 mph - -   Haze
6:00 AM 78.8 °F - 71.6 °F 78% 29.71 in 1.9 mi SW 4.6 mph - N/A   Haze
7:00 AM 80.6 °F 83.9 °F 69.8 °F 70% 29.71 in 1.9 mi SW 6.9 mph - N/A   Haze
8:00 AM 82.4 °F 86.3 °F 69.8 °F 66% 29.74 in 2.2 mi WSW 9.2 mph - N/A   Haze
8:30 AM 84 °F - 71 °F 56% 29.66 in 1 mi West 2.3 mph - -   Haze
9:00 AM 86.0 °F 91.8 °F 71.6 °F 62% 29.74 in 2.2 mi West 9.2 mph - N/A   Haze
10:00 AM 87.8 °F 92.6 °F 69.8 °F 55% 29.77 in 2.5 mi West 10.4 mph - N/A   Haze
11:00 AM 89.6 °F 94.7 °F 69.8 °F 52% 29.77 in 2.5 mi WSW 13.8 mph - N/A   Haze
11:30 AM 92 °F - 71 °F 41% 29.66 in 2 mi West 9.2 mph - -   Haze
12:00 PM 91.4 °F 96.8 °F 69.8 °F 49% 29.77 in 2.5 mi West 11.5 mph - N/A   Haze
1:00 PM 93.2 °F 98.8 °F 69.8 °F 46% 29.74 in 2.5 mi West 8.1 mph - N/A   Haze
2:00 PM 95.0 °F 99.5 °F 68.0 °F 41% 29.71 in 2.5 mi West 6.9 mph - N/A   Haze
2:30 PM 96 °F - 70 °F 33% 29.60 in 2 mi SSW 9.2 mph - -   Haze
3:00 PM 95.0 °F 98.5 °F 66.2 °F 39% 29.68 in 2.5 mi SW 10.4 mph - N/A   Haze
4:00 PM 96.8 °F 99.0 °F 64.4 °F 34% 29.65 in 2.5 mi SW 10.4 mph - N/A   Haze
5:00 PM 95.0 °F 97.0 °F 64.4 °F 36% 29.65 in 2.5 mi SSW 9.2 mph - N/A   Haze
5:30 PM 95 °F - 65 °F 28% 29.55 in 2 mi SW 10.4 mph - -  
6:00 PM 93.2 °F 94.9 °F 64.4 °F 38% 29.65 in 2.5 mi WSW 10.4 mph - N/A   Haze
7:00 PM 89.6 °F 92.2 °F 66.2 °F 46% 29.65 in 2.5 mi WSW 5.8 mph - N/A   Haze
8:00 PM 89.6 °F 93.4 °F 68.0 °F 49% 29.68 in 2.5 mi Variable 3.5 mph - N/A   Haze
8:30 PM 89 °F - 71 °F 46% 29.60 in 2 mi West 4.6 mph - -   Haze
9:00 PM 87.8 °F 91.4 °F 68.0 °F 52% 29.68 in 2.5 mi West 4.6 mph - N/A   Haze
10:00 PM 86.0 °F 89.4 °F 68.0 °F 55% 29.71 in 2.5 mi West 4.6 mph - N/A   Haze
11:00 PM 84.2 °F 87.3 °F 68.0 °F 58% 30.01 in 2.5 mi West 4.6 mph - N/A   Haze
11:30 PM 85 °F - 69 °F 49% 29.60 in 2 mi West 2.3 mph - -   Haze